Home > Weather > Santo Domingo > Past weeks

Flag for Dominican Republic Weather for the Past 2 Weeks in Santo Domingo, Dominican Republic

Now
82 °F

Passing clouds.


Feels Like: 88 °F
Forecast: N/A
Wind: 6 mph from South

Location: Las Americas

Current Time: Feb 9, 2016 at 7:14:57 PM

Latest Report: Feb 9, 2016 at 6:08 PM


Visibility: N/A

Pressure: N/A

Humidity: 74%

Dew point: 73 °F

Location of Santo DomingoLocation

Historic Weather in Santo Domingo — Graph

°F

Santo Domingo Temperature Yesterday

Maximum temperature yesterday: 86 °F (at 2:00 PM)
Minimum temperature yesterday: 70 °F (at 6:00 AM)
Average temperature yesterday: 78 °F

High & Low Weather Summary for the Past Weeks

 TemperatureHumidityPressure
High88 °F (Jan 29, 2:00 PM)100% (Jan 27, 1:00 AM)30.18 "Hg (Jan 27, 1:00 AM)
Low66 °F (Feb 5, 6:00 AM)55% (Jan 30, 3:00 PM)29.92 "Hg (Feb 3, 3:00 PM)
Average77 °F81%30.01 "Hg
* Reported Jan 25 6:00 PM — Feb 9 6:08 PM, Santo Domingo, Weather by CustomWeather, © 2016

Note: Actual official high and low records may vary slightly from our data, if they occured in-between our weather recording intervals... More about our weather records

Advertising

Santo Domingo Weather History for the Previous 24 Hours

 ConditionsComfort  
Time TempWeatherWind HumidityBarometerVisibility
6:08 PM
Tue, Feb 9
82 °FPassing clouds.6 mph74%N/AN/A
5:00 PM84 °FPassing clouds.12 mph70%30.01 "HgN/A
4:00 PM86 °FPassing clouds.5 mph62%30.01 "HgN/A
3:00 PM86 °FPassing clouds.9 mphN/A30.01 "HgN/A
2:00 PM86 °FScattered clouds.7 mphN/AN/AN/A
1:00 PM86 °FScattered clouds.14 mph66%30.07 "HgN/A
12:00 PM84 °FScattered clouds.12 mph70%30.07 "HgN/A
11:00 AM84 °FScattered clouds.7 mph74%30.09 "HgN/A
10:00 AM82 °FPassing clouds.9 mph79%30.07 "HgN/A
9:00 AM75 °FPassing clouds.5 mph83%30.07 "HgN/A
8:00 AM72 °FScattered clouds.5 mphN/A30.04 "HgN/A
7:00 AM70 °FPassing clouds.3 mph100%30.01 "HgN/A
6:00 AM70 °FPassing clouds.5 mph100%30.01 "HgN/A
5:00 AM70 °FPassing clouds.5 mph100%29.98 "HgN/A
4:00 AM72 °FPassing clouds.5 mph94%29.98 "HgN/A
3:00 AM72 °FPassing clouds.5 mph94%29.98 "HgN/A
2:00 AM72 °FPassing clouds.5 mph94%30.01 "HgN/A
1:00 AM73 °FPassing clouds.5 mph94%30.01 "HgN/A
12:00 AM73 °FPassing clouds.5 mph94%30.04 "HgN/A
11:00 PM
Mon, Feb 8
75 °FPassing clouds.5 mph94%30.04 "HgN/A
10:00 PM75 °FPassing clouds.No wind94%30.01 "HgN/A
9:00 PM77 °FPassing clouds.No wind89%30.01 "HgN/A
8:00 PM79 °FPassing clouds.No wind84%29.98 "HgN/A
7:00 PM79 °FPassing clouds.6 mph84%29.95 "HgN/A
Weather by CustomWeather, © 2016

See weather overviewHow to use our weather pages